Wind_Speed
11 11 11 10 10 9 7 6 6 5 5 4 4 3 2 2 2 2 3 4 4 3 3 5 4 4 4 4 4 5 5 5 6 6 6 6 7 7 6 6 6 6 6 6 6 6 5 5 5
12 11 11 11 10 8 8 7 6 6 6 5 4 4 4 4 3 3 4 5 5 5 5 5 6 5 5 5 5 5 5 5 5 5 6 6 6 5 5 5 5 5 5 5 5 5 4 4 4
13 12 12 12 11 8 8 8 7 7 7 6 6 6 6 6 5 4 4 5 5 6 6 6 7 6 7 6 6 6 6 5 5 5 5 5 5 5 5 4 4 4 4 4 4 4 4 3 3
13 13 13 12 11 10 9 8 7 8 8 8 8 8 8 7 6 4 4 5 5 6 7 8 8 8 8 8 8 7 6 6 5 5 4 4 4 4 4 4 4 3 3 3 3 3 3 3 3
14 13 13 12 12 11 10 8 8 8 8 8 8 9 9 8 7 5 5 5 6 7 8 9 9 9 10 10 9 8 7 6 5 5 4 4 3 3 3 3 3 3 3 3 3 3 3 3 3
14 13 12 11 13 12 11 10 9 8 8 9 8 9 9 8 7 6 5 5 6 7 9 10 10 10 11 10 10 9 8 7 6 5 4 3 3 3 3 2 3 3 2 2 2 3 2 2 3
14 13 12 12 13 13 12 11 9 9 9 9 9 9 9 8 7 6 5 6 7 8 9 11 11 12 11 11 11 10 9 8 6 5 5 4 3 2 2 2 2 2 2 2 2 3 3 3 3
14 13 12 12 12 13 12 11 10 10 10 10 10 10 10 9 7 7 6 7 7 9 10 11 13 13 12 12 12 11 10 8 7 6 5 4 3 2 2 2 2 2 3 2 2 3 3 4 4
14 12 12 12 12 14 13 12 11 10 11 11 11 11 11 10 8 7 7 8 9 11 12 12 13 13 13 13 12 12 10 9 8 6 6 5 4 3 2 2 2 2 2 2 3 3 3 4 4
14 12 13 13 13 13 13 12 12 11 11 11 12 12 12 11 9 8 7 8 10 12 13 13 14 14 14 14 14 13 11 10 8 7 6 5 4 4 3 3 2 2 2 2 3 3 3 4 4
15 14 14 14 14 13 13 12 11 12 12 12 12 12 12 12 11 9 9 9 11 13 14 15 15 14 14 15 14 13 12 11 9 8 7 6 5 4 3 3 2 2 2 2 3 3 3 3 3
15 15 14 14 14 13 13 12 12 12 12 13 13 12 12 12 11 10 10 10 11 13 15 16 17 16 15 15 14 14 12 11 10 8 7 6 6 5 4 3 3 2 2 2 2 3 2 2 3
16 15 15 14 14 13 13 12 12 12 13 13 13 13 13 12 12 11 11 11 12 13 15 17 18 18 17 16 16 15 14 12 11 9 7 6 6 5 5 4 3 2 2 2 2 3 2 3 3
16 15 15 14 14 13 13 13 13 12 13 13 13 13 13 13 13 12 12 12 12 13 15 16 18 19 19 18 18 17 15 14 13 10 8 7 6 6 5 5 4 4 3 3 3 3 3 3 2
16 15 14 14 13 13 12 13 13 12 12 13 13 13 13 13 12 12 12 13 13 14 15 17 18 20 20 20 19 17 16 15 13 11 9 8 7 7 6 5 4 4 3 3 4 4 3 3 2
15 14 14 15 14 13 12 12 13 12 12 12 13 13 12 12 12 13 13 12 12 13 15 17 18 20 21 20 20 18 17 16 14 12 10 9 9 8 6 6 4 4 4 4 4 4 3 3 2
15 14 14 16 14 14 12 11 12 11 11 11 12 13 13 13 12 12 12 13 13 13 15 17 18 19 20 20 20 19 18 16 14 13 11 10 10 8 7 6 5 4 4 4 4 3 3 3 3
15 15 16 16 16 14 13 12 12 12 11 11 12 13 13 12 12 12 12 13 14 14 14 16 18 18 19 19 20 19 18 17 15 13 12 11 10 9 8 7 6 5 4 4 4 3 3 3 3
17 16 16 17 16 14 13 12 12 12 12 12 12 12 12 12 12 12 12 13 13 14 15 16 17 18 19 20 20 20 18 17 15 14 13 12 11 10 9 8 7 6 5 4 4 4 3 3 3
16 16 16 16 16 14 14 13 13 13 13 13 13 12 13 13 12 12 12 12 12 14 15 16 17 18 19 20 20 21 20 18 17 15 14 13 11 11 10 9 8 6 6 5 5 4 4 3 2
16 16 16 16 15 14 13 13 14 14 13 13 14 14 13 13 12 12 12 11 11 12 13 16 17 18 20 21 22 21 20 19 17 16 15 14 12 11 10 9 8 7 7 6 5 5 4 3 2
16 17 17 16 14 14 13 11 14 14 14 13 14 14 14 13 12 12 11 11 11 11 13 15 16 18 19 21 22 22 21 19 18 17 16 15 13 12 11 10 9 8 7 6 5 5 4 3 2
18 18 17 16 15 14 13 11 12 13 13 14 14 14 13 12 12 12 11 11 11 12 13 15 15 17 19 20 22 22 22 21 20 18 17 15 13 12 12 11 10 9 7 7 6 5 4 3 2
18 17 16 15 14 14 14 12 10 11 12 13 14 14 13 11 11 11 11 11 11 11 12 15 15 16 18 20 23 23 23 21 20 18 17 16 15 13 13 12 10 9 8 7 6 5 5 4 3
18 16 14 14 14 14 15 12 11 11 12 13 13 13 12 11 10 10 11 11 11 11 11 13 14 16 18 20 22 23 23 21 20 18 17 17 16 14 13 12 10 9 8 8 7 6 5 4 4
18 17 16 15 14 14 16 13 11 12 12 12 12 12 11 11 10 10 11 12 12 12 12 12 15 17 18 20 22 22 23 22 21 19 18 18 17 15 13 12 10 10 9 9 8 7 6 6 6
19 19 18 17 16 15 14 13 12 13 13 12 12 11 11 10 10 10 10 10 11 12 12 13 15 17 19 20 22 23 23 22 21 20 19 18 17 15 14 12 11 11 10 9 9 8 8 8 8
21 19 19 18 16 15 14 13 12 12 12 13 13 12 11 10 10 9 8 8 9 11 12 13 13 15 18 21 22 23 23 22 21 21 20 19 16 15 14 13 12 11 11 10 10 10 9 10 10
21 21 20 19 18 15 14 14 15 14 13 13 12 12 11 10 9 9 9 9 10 11 12 12 13 15 17 20 22 23 23 23 22 21 20 18 17 15 14 14 13 13 12 12 12 11 12 11 12
22 21 21 20 19 17 15 15 16 15 14 13 12 11 11 10 9 9 9 9 10 11 12 13 14 14 17 19 22 23 22 21 21 20 19 18 17 16 15 15 14 13 13 13 13 13 13 13 14
Wind_Direction
335 334 334 334 336 341 337 332 330 331 333 331 327 324 320 312 293 258 240 223 208 195 185 188 187 191 194 190 183 170 153 141 132 124 116 111 108 107 104 101 99 97 94 95 97 99 99 100 100
327 326 325 326 330 332 324 323 317 318 318 315 311 303 293 284 282 267 252 231 215 206 204 200 196 197 200 199 192 180 168 157 145 135 126 120 115 112 111 109 104 102 100 101 104 107 108 109 111
321 320 319 319 321 318 312 316 313 308 306 303 299 295 293 285 283 272 255 236 223 211 208 205 204 203 204 201 196 186 179 169 155 143 136 132 126 120 117 117 116 112 109 107 110 114 119 124 126
316 315 314 314 312 312 311 310 307 306 300 295 291 290 289 287 285 279 258 239 224 213 211 210 209 207 205 202 197 192 187 178 166 155 149 143 137 131 127 127 128 122 121 120 124 126 132 141 147
311 310 311 310 306 307 310 310 305 300 295 293 289 291 290 287 281 276 264 241 224 215 213 210 211 209 208 207 204 201 195 186 174 166 160 156 150 143 139 136 137 135 138 145 149 147 150 160 166
304 305 305 301 300 303 305 304 301 299 294 293 291 292 293 288 282 276 263 244 228 218 214 210 210 211 212 213 211 209 203 196 187 178 172 167 155 150 150 149 152 152 153 156 171 178 182 192 194
300 300 297 295 296 299 302 301 298 298 296 291 291 289 290 288 278 272 260 243 228 219 215 211 212 215 216 216 215 213 208 202 197 188 180 174 168 161 162 163 167 171 176 189 202 201 204 214 215
297 296 295 293 293 294 299 299 297 292 291 289 287 288 287 286 275 263 255 246 236 226 221 216 214 216 219 218 217 216 213 208 203 199 193 190 190 190 188 185 194 191 192 203 208 211 220 224 222
293 291 287 285 286 289 296 296 295 289 286 284 282 284 284 284 278 262 254 247 238 231 227 221 217 220 223 220 217 215 214 211 208 208 207 205 207 205 206 201 205 194 191 199 209 218 227 228 222
290 286 280 281 283 286 291 293 291 290 283 282 281 282 284 281 276 263 257 251 242 233 227 222 220 224 226 222 217 216 215 211 212 210 211 211 212 208 210 212 208 207 205 206 216 223 235 231 224
285 282 280 281 281 284 287 289 290 289 281 280 281 282 283 280 274 266 260 252 243 236 227 222 222 222 223 219 216 215 215 213 214 212 212 210 212 210 211 208 206 202 205 212 219 226 229 224 221
281 280 278 277 278 280 282 283 284 282 277 277 279 278 279 280 276 267 261 250 241 236 231 226 223 221 221 217 217 216 219 217 214 211 211 210 211 210 209 204 202 204 215 216 213 220 220 219 219
278 275 273 274 275 277 278 278 280 277 277 277 277 273 274 277 278 269 261 249 242 238 234 228 221 222 224 221 217 218 220 216 212 212 212 212 210 209 210 205 205 206 214 213 203 198 198 196 202
275 272 270 270 271 273 274 277 281 281 280 277 277 273 278 280 277 270 259 253 246 239 234 226 223 221 220 216 216 217 217 216 211 213 216 216 211 209 208 208 202 203 210 208 193 188 190 186 191
270 268 267 267 268 269 273 276 280 281 280 279 279 277 278 277 276 266 258 256 247 238 232 230 226 222 220 219 217 217 216 215 213 216 218 216 213 211 206 203 195 195 196 192 186 182 179 182 188
264 263 263 266 266 270 272 274 280 280 281 281 282 281 276 277 275 266 259 254 245 237 230 230 226 224 222 219 217 218 216 217 216 217 219 217 216 212 205 200 194 188 178 176 181 182 181 186 196
259 255 253 262 265 269 270 268 274 279 282 282 283 285 281 278 276 267 259 249 243 239 231 228 227 225 219 217 215 214 214 215 215 216 220 217 215 211 207 200 193 188 181 179 179 183 186 183 186
251 248 251 258 264 266 268 268 271 278 282 285 285 288 285 275 272 264 258 250 244 238 233 230 227 222 215 210 211 212 211 214 213 215 215 213 212 210 203 196 188 187 185 179 179 179 175 171 173
244 244 248 255 261 263 266 269 270 277 284 289 286 287 286 279 269 265 262 256 245 238 235 232 226 220 216 213 213 213 212 213 212 211 211 209 208 207 199 193 186 184 181 179 179 174 168 166 166
244 243 247 254 259 262 264 266 270 277 284 287 287 288 288 285 275 265 262 259 249 240 233 232 228 223 217 213 212 212 211 210 211 208 209 207 204 201 196 188 186 187 184 180 175 171 167 166 169
239 239 241 249 258 263 265 265 270 277 282 283 284 287 288 284 275 266 262 261 251 238 234 230 227 220 217 212 212 213 213 213 209 207 206 204 201 198 194 191 189 188 186 185 181 177 176 175 182
235 237 241 249 254 261 264 258 272 275 278 279 282 286 288 281 273 265 261 257 249 239 236 231 228 222 218 215 213 214 213 211 207 205 203 201 200 201 199 197 196 193 192 195 190 183 183 185 194
231 237 241 248 253 257 268 262 267 273 272 276 282 286 288 281 273 266 259 251 248 243 237 230 225 221 219 217 214 212 210 207 205 204 201 200 201 202 201 197 195 196 198 200 194 191 194 197 204
234 239 245 251 255 257 263 265 267 270 267 274 282 286 286 283 273 264 252 250 251 246 234 227 223 220 217 215 213 211 208 207 205 203 203 203 202 203 201 200 201 201 202 202 201 203 207 213 232
234 236 243 251 255 259 261 263 264 267 266 270 279 284 284 281 273 261 254 256 255 243 233 227 221 219 217 214 210 206 205 203 201 202 202 202 200 202 202 204 206 207 210 211 214 220 224 235 251
235 233 231 238 250 256 265 266 269 269 269 271 274 277 279 279 272 262 258 256 252 238 227 225 220 216 212 208 204 201 202 202 202 202 201 200 200 202 204 208 211 216 222 224 229 233 237 247 260
232 232 234 241 248 251 258 267 272 272 270 271 270 273 275 277 272 265 261 252 241 230 223 222 217 214 210 206 204 201 200 200 201 201 201 201 203 204 207 212 218 224 229 232 234 239 245 254 263
231 235 238 241 246 253 262 268 268 268 269 269 269 270 272 271 271 264 257 244 234 224 221 215 212 208 207 205 203 199 198 198 200 201 202 205 206 207 213 219 225 229 232 236 239 243 251 258 266
235 237 239 242 243 249 259 263 260 263 267 270 267 267 266 265 261 253 248 237 231 223 217 215 210 204 204 201 198 196 199 201 202 204 206 209 211 216 221 224 230 233 237 242 246 249 255 262 269
234 238 240 242 248 248 250 258 259 260 266 267 265 262 259 259 252 247 244 240 232 221 215 212 206 204 200 198 197 197 199 201 202 206 209 211 216 221 225 229 233 236 242 248 252 254 259 266 272
Height
5899 5898 5897 5897 5897 5897 5896 5895 5894 5893 5892 5891 5891 5890 5889 5889 5889 5891 5888 5886 5887 5887 5887 5888 5889 5889 5889 5890 5890 5890 5890 5890 5890 5890 5890 5890 5890 5890 5891 5891 5891 5891 5892 5892 5892 5892 5892 5892 5892
5898 5896 5896 5896 5896 5896 5895 5893 5893 5892 5891 5890 5889 5888 5888 5887 5887 5886 5885 5885 5885 5886 5886 5887 5888 5888 5889 5889 5890 5890 5890 5890 5890 5890 5890 5890 5891 5891 5891 5891 5891 5891 5892 5892 5892 5892 5893 5893 5893
5896 5895 5895 5894 5894 5894 5893 5892 5891 5890 5889 5889 5888 5887 5887 5886 5885 5884 5884 5884 5884 5884 5885 5886 5887 5888 5888 5889 5889 5890 5890 5890 5890 5890 5891 5891 5891 5891 5891 5891 5891 5892 5892 5892 5892 5892 5893 5893 5893
5894 5893 5893 5893 5892 5891 5891 5890 5889 5888 5888 5887 5886 5886 5885 5884 5883 5883 5882 5882 5882 5883 5883 5884 5885 5886 5887 5888 5889 5889 5890 5890 5890 5891 5891 5891 5891 5891 5891 5891 5891 5891 5892 5892 5892 5892 5893 5893 5893
5891 5891 5891 5890 5889 5889 5888 5888 5887 5887 5886 5885 5885 5884 5883 5882 5881 5881 5881 5881 5881 5881 5882 5883 5884 5885 5886 5887 5888 5888 5889 5890 5890 5890 5891 5891 5891 5891 5891 5891 5891 5891 5891 5891 5892 5892 5892 5893 5893
5890 5889 5889 5888 5887 5886 5886 5886 5885 5885 5884 5883 5883 5882 5881 5880 5880 5879 5879 5879 5879 5879 5880 5881 5882 5884 5885 5886 5887 5887 5888 5889 5889 5890 5890 5891 5891 5891 5891 5891 5891 5891 5891 5891 5891 5892 5892 5892 5892
5888 5887 5886 5886 5885 5884 5884 5883 5883 5882 5882 5881 5881 5880 5879 5878 5878 5877 5877 5877 5877 5878 5878 5879 5881 5882 5883 5884 5885 5886 5887 5888 5889 5889 5890 5890 5891 5891 5891 5891 5890 5890 5890 5891 5891 5891 5891 5891 5892
5884 5885 5884 5883 5882 5882 5881 5881 5880 5880 5879 5879 5879 5878 5877 5877 5876 5875 5875 5875 5875 5876 5876 5877 5878 5880 5881 5882 5883 5885 5886 5887 5888 5888 5889 5889 5890 5890 5890 5890 5890 5890 5890 5890 5890 5890 5891 5891 5891
5881 5882 5881 5881 5880 5879 5878 5878 5878 5877 5877 5876 5876 5876 5875 5874 5873 5873 5873 5873 5873 5873 5874 5875 5876 5877 5879 5880 5881 5883 5884 5885 5886 5887 5888 5888 5889 5889 5889 5889 5889 5889 5889 5889 5889 5890 5890 5890 5890
5878 5879 5878 5877 5877 5876 5876 5875 5875 5875 5874 5874 5874 5873 5872 5872 5871 5870 5870 5871 5871 5871 5872 5873 5874 5875 5877 5878 5879 5881 5883 5884 5885 5886 5886 5887 5888 5888 5888 5888 5888 5888 5888 5888 5888 5889 5889 5889 5889
5874 5875 5874 5874 5873 5873 5873 5873 5872 5872 5872 5871 5871 5870 5869 5869 5868 5868 5867 5867 5868 5868 5869 5870 5871 5873 5875 5876 5878 5879 5881 5882 5883 5884 5885 5886 5886 5887 5887 5887 5887 5887 5887 5887 5887 5888 5888 5888 5888
5871 5871 5870 5870 5870 5870 5870 5870 5869 5869 5869 5868 5868 5867 5866 5866 5865 5864 5864 5864 5864 5865 5866 5867 5869 5870 5872 5874 5876 5878 5879 5881 5882 5883 5884 5885 5885 5886 5886 5886 5886 5886 5886 5886 5886 5887 5887 5887 5887
5867 5867 5867 5867 5867 5867 5867 5866 5866 5866 5866 5865 5864 5864 5863 5862 5862 5861 5860 5860 5861 5861 5862 5863 5865 5867 5869 5872 5874 5876 5877 5879 5880 5881 5882 5883 5884 5884 5885 5885 5885 5885 5885 5886 5886 5886 5886 5886 5886
5863 5863 5863 5863 5863 5864 5864 5863 5863 5863 5863 5862 5861 5860 5859 5858 5858 5857 5857 5857 5857 5858 5859 5860 5861 5864 5866 5869 5871 5873 5875 5877 5878 5880 5881 5882 5883 5883 5884 5884 5885 5885 5885 5885 5885 5885 5886 5886 5886
5859 5860 5860 5860 5860 5861 5861 5861 5861 5860 5860 5859 5858 5857 5856 5855 5854 5853 5853 5853 5853 5854 5856 5857 5859 5861 5863 5866 5869 5871 5873 5875 5876 5878 5879 5880 5881 5882 5883 5883 5884 5884 5884 5885 5885 5885 5885 5885 5885
5856 5857 5858 5857 5857 5858 5860 5860 5858 5857 5857 5856 5855 5853 5853 5851 5850 5849 5850 5850 5850 5851 5853 5854 5856 5858 5860 5863 5866 5868 5871 5873 5874 5876 5877 5879 5880 5881 5882 5882 5883 5883 5884 5884 5884 5885 5885 5885 5885
5852 5854 5855 5855 5854 5855 5856 5856 5855 5854 5854 5853 5852 5851 5849 5848 5847 5846 5846 5846 5847 5848 5849 5851 5853 5855 5857 5860 5863 5866 5868 5870 5872 5874 5875 5877 5878 5879 5880 5882 5882 5883 5883 5883 5884 5884 5884 5884 5885
5850 5851 5851 5851 5851 5852 5852 5853 5852 5851 5851 5850 5849 5848 5847 5846 5844 5843 5843 5843 5844 5845 5846 5848 5850 5852 5854 5857 5860 5863 5866 5868 5870 5872 5874 5875 5877 5878 5880 5881 5881 5882 5882 5883 5883 5884 5884 5884 5884
5845 5846 5847 5848 5848 5849 5849 5849 5849 5849 5848 5848 5846 5845 5844 5843 5842 5841 5841 5840 5841 5842 5843 5845 5847 5850 5852 5855 5858 5861 5863 5866 5868 5870 5872 5874 5875 5877 5878 5880 5881 5881 5882 5883 5883 5883 5884 5884 5884
5840 5842 5844 5844 5844 5846 5846 5847 5846 5846 5846 5845 5844 5843 5841 5840 5839 5838 5838 5838 5837 5839 5840 5842 5844 5847 5849 5852 5855 5858 5860 5863 5866 5868 5870 5872 5874 5876 5877 5879 5880 5881 5882 5882 5883 5883 5884 5884 5884
5836 5839 5840 5840 5841 5842 5844 5844 5844 5843 5842 5842 5841 5840 5838 5837 5836 5836 5835 5835 5835 5836 5837 5839 5841 5843 5846 5849 5852 5855 5858 5861 5864 5866 5869 5871 5873 5875 5876 5878 5879 5880 5881 5882 5882 5883 5883 5884 5883
5833 5834 5835 5837 5838 5840 5841 5843 5841 5840 5839 5839 5838 5837 5835 5834 5833 5833 5832 5832 5833 5834 5835 5836 5838 5840 5843 5845 5849 5852 5856 5859 5862 5864 5867 5869 5871 5873 5875 5877 5878 5879 5881 5882 5882 5883 5883 5883 5883
5829 5830 5832 5833 5835 5837 5837 5839 5840 5837 5836 5836 5834 5833 5832 5831 5830 5830 5829 5829 5830 5831 5832 5833 5835 5837 5840 5843 5846 5849 5853 5856 5859 5862 5865 5868 5870 5872 5874 5876 5877 5879 5880 5881 5881 5882 5882 5883 5883
5824 5826 5828 5830 5833 5834 5835 5835 5836 5834 5833 5832 5831 5830 5829 5828 5827 5827 5827 5827 5827 5828 5829 5830 5832 5834 5837 5840 5843 5846 5850 5854 5857 5860 5863 5866 5868 5871 5873 5875 5876 5878 5879 5880 5881 5881 5882 5882 5882
5820 5824 5827 5829 5830 5832 5831 5831 5832 5830 5829 5828 5827 5826 5825 5825 5825 5824 5824 5824 5824 5825 5827 5828 5829 5832 5834 5837 5840 5844 5848 5851 5855 5858 5861 5864 5867 5869 5872 5874 5875 5877 5878 5879 5880 5880 5881 5881 5881
5816 5820 5824 5827 5828 5829 5827 5827 5828 5826 5825 5825 5824 5823 5822 5822 5822 5821 5821 5821 5821 5822 5824 5825 5827 5829 5831 5834 5837 5841 5845 5849 5853 5856 5860 5863 5865 5868 5870 5872 5874 5875 5876 5877 5878 5879 5879 5879 5880
5812 5815 5819 5821 5822 5824 5824 5824 5823 5822 5821 5821 5820 5820 5820 5819 5819 5818 5818 5818 5818 5819 5821 5822 5824 5826 5828 5831 5835 5839 5843 5847 5851 5855 5858 5861 5864 5866 5869 5871 5872 5874 5875 5876 5876 5877 5877 5878 5878
5808 5811 5813 5815 5817 5819 5821 5821 5821 5818 5818 5817 5817 5817 5816 5816 5816 5815 5815 5815 5816 5817 5818 5819 5821 5823 5825 5828 5832 5836 5841 5845 5849 5853 5856 5859 5862 5865 5867 5869 5870 5872 5873 5874 5874 5875 5875 5875 5875
5803 5806 5808 5811 5812 5815 5817 5819 5815 5814 5814 5814 5813 5813 5813 5813 5813 5812 5813 5813 5814 5815 5816 5817 5819 5821 5823 5826 5830 5834 5839 5843 5847 5851 5854 5857 5860 5862 5865 5867 5868 5870 5871 5871 5872 5872 5872 5872 5872
5798 5800 5803 5805 5807 5808 5811 5815 5810 5810 5810 5810 5810 5810 5810 5810 5810 5810 5810 5811 5811 5812 5814 5816 5818 5820 5822 5825 5829 5833 5837 5842 5845 5849 5852 5855 5858 5860 5862 5864 5866 5867 5868 5868 5869 5869 5869 5869 5869